Погода в Гришином

Россия / Владимирская область     56°00′19″N   42°17′37″E
темп.,
°C
ветер,
м/с
пор.,
м/с
влажн.,
%
обл.,
%
осадки,
мм/ч
давл.,
гПа
погр.,
м
27 января, ср
ср2700:000ююв41290100 0.1 1013595
03:000ю51296100 0.2 1012763
06:00+1ююв71497100 1.0 1010942
09:00+2ю71598100 3.4 1009846
12:00+2ю71598100 2.1 1010810
15:00+3ююз61497100 2.3 1009725
18:00+3ююз51396100 0.4 1009583
21:00+2ю41298100 1.4 1009474
28 января, чт
чт2800:00+2ю41098100 1.8 1009361
03:00+2ююз3898100 2.6 1010307
06:00+1ююв2698100 0.3 1009217
09:00+1ююв4997100 0.6 1010401
12:000ю4993100 0.1 1009390
15:00−1ююв3794100 0.5 1009422
18:00−1ююв3992100 0.3 1009491
21:00−1ю4892100 0.3 1009585
29 января, пт
пт2900:00−1ю3790100 0.0 1009575
03:00−2юв3694100 0.1 1008339
06:00−2юв4794100 0.1 1006357
09:00−3юв4995100 0.6 1004484
12:00−3юв5990100 0.8 1003541
15:00−2ююв4792100 1.5 1001486
18:00−1ююв4994100 0.4 1001467
21:00−2ююв4109398 0.4 1000419
30 января, сб
сб3000:00−2ююв499295 0.0 998595
03:00−1ююв5119398 0.1 996879
06:00−2ююв51195100 0.4 993781
09:00−2ю61191100 1.2 993901
12:00−3ююз598358 0.1 994809
15:00−4ююз5108779 0.1 995890
18:00−5ююз61291100 0.1 998836
21:00−4юз61184100 0.3 999861
31 января, вс
вс3100:00−5ююз4888100 0.1 1001708
03:00−5ююв3892100 0.1 1000442
06:00−4вюв4895100 0.9 995398
09:00−3вюв41097100 4.5 991486
12:00+1ююз61398100 2.4 990822
15:00−3зюз4795100 2.8 991544
18:00−4зюз41094100 0.7 995600
21:00−5юз5119199 0.8 999728